カタログに戻る

FLOCK 4H 27

運用中科学SSO
NORAD 66730·PAYLOAD·🇺🇸 United States

打ち上げ Nov 28, 2025 から Vandenberg Space Force Base

Loading…

次のパス (今後24時間)

TLE

最新Source: CelesTrak SupGP

元期: Sep 14, 2026, 06:45 UTC

1 66730C 25276BS  26257.28133102  .00007689  00000+0  34343-3 0  2572
2 66730  97.4098 329.5090 0001861  79.5230 330.9366 15.21419912    17

AllMySatでFLOCK 4H 27をリアルタイム追跡

Download on the App Store